Grafton, IL

3:22 AM CST on February 25, 2017 (GMT -0600)
Saint Charles County Smartt

Weather History for KSET - June, 2013

Change the Weather History Date:

Thursday, June 20, 2013

  Actual Average (KSTL) Record (KSTL)
Temperature  
Mean Temperature 78 °F -  
Max Temperature 91 °F 86 °F 103 °F (1953)
Min Temperature 66 °F 66 °F 52 °F (1980)
Cooling Degree Days 14    
Growing Degree Days 28 (Base 50)    
Moisture  
Dew Point 66 °F    
Average Humidity 68    
Maximum Humidity 97    
Minimum Humidity 41    
Precipitation  
Precipitation 0.00 in - - ()
Sea Level Pressure  
Sea Level Pressure 30.06 in    
Wind  
Wind Speed 4 mph (SSE)    
Max Wind Speed 14 mph    
Max Gust Speed 17 mph    
Visibility 9 miles    
Events      
Averages and records for this station are not official NWS values.
T = Trace of Precipitation, MM = Missing Value Source: NWS Daily Summary

Daily Weather History Graph

Daily Weather History Graph

Search for Another Location

Airport or City:

Trip Planner

Search our weather history database for the weather conditions in past years. The results will help you decide how hot, cold, wet, or windy it might be!

Date:

Astronomy

Jun. 20, 2013 Rise Set
Actual Time 5:36 AM CDT 8:30 PM CDT
Civil Twilight 5:04 AM CDT 9:02 PM CDT
Nautical Twilight 4:23 AM CDT 9:43 PM CDT
Astronomical Twilight 3:37 AM CDT 10:29 PM CDT
Moon 5:33 PM CDT (6/20) 3:01 AM CDT (6/20)
Length of Visible Light 15h 58m
Length of Day
14h 54m
Waxing Gibbous, 89% of the Moon is Illuminated
Jun 20
Waxing Gibbous
Jun 23
Full
Jun 29
Last Quarter
Jul 8
New
Jul 15
First Quarter

Hourly Weather History & Observations

Time (CDT) Temp. Heat Index Dew Point Humidity Pressure Visibility Wind Dir Wind Speed Gust Speed Precip Events Conditions
12:54 AM 71.1 °F - 66.0 °F 84% 30.04 in 10.0 mi Calm Calm - N/A   Clear
1:54 AM 70.0 °F - 64.9 °F 84% 30.05 in 9.0 mi Calm Calm - N/A   Clear
2:54 AM 68.0 °F - 66.0 °F 93% 30.05 in 6.0 mi Calm Calm - N/A   Clear
3:54 AM 69.1 °F - 66.9 °F 93% 30.06 in 6.0 mi Calm Calm - N/A   Clear
4:54 AM 66.9 °F - 66.0 °F 97% 30.06 in 4.0 mi Calm Calm - N/A   Clear
5:54 AM 66.9 °F - 64.9 °F 93% 30.07 in 2.0 mi Calm Calm - N/A   Clear
6:24 AM 68.0 °F - 66.2 °F 94% 30.08 in 4.0 mi Calm Calm - N/A   Clear
6:54 AM 71.1 °F - 68.0 °F 90% 30.08 in 6.0 mi East 4.6 mph - N/A   Clear
7:54 AM 75.0 °F - 68.0 °F 79% 30.10 in 7.0 mi East 5.8 mph - N/A   Clear
8:54 AM 79.0 °F - 69.1 °F 72% 30.10 in 10.0 mi ESE 5.8 mph - N/A   Clear
9:54 AM 82.0 °F 84.9 °F 68.0 °F 62% 30.10 in 10.0 mi ESE 6.9 mph - N/A   Clear
10:54 AM 84.9 °F 87.1 °F 66.0 °F 53% 30.09 in 10.0 mi SSE 4.6 mph - N/A   Clear
11:54 AM 87.1 °F 89.2 °F 66.0 °F 49% 30.09 in 10.0 mi SSW 5.8 mph - N/A   Clear
12:54 PM 89.1 °F 91.3 °F 66.0 °F 46% 30.08 in 10.0 mi SSE 6.9 mph - N/A   Clear
1:54 PM 90.0 °F 92.4 °F 66.0 °F 45% 30.06 in 10.0 mi South 11.5 mph 17.3 mph N/A   Partly Cloudy
2:54 PM 91.0 °F 93.0 °F 64.9 °F 42% 30.05 in 10.0 mi South 9.2 mph - N/A   Partly Cloudy
3:54 PM 91.0 °F 92.6 °F 64.0 °F 41% 30.03 in 10.0 mi South 10.4 mph - N/A   Clear
4:54 PM 89.1 °F 91.0 °F 64.9 °F 45% 30.03 in 10.0 mi South 12.7 mph - N/A   Clear
5:54 PM 89.1 °F 91.0 °F 64.9 °F 45% 30.02 in 10.0 mi South 13.8 mph - N/A   Clear
6:54 PM 88.0 °F 90.3 °F 66.0 °F 48% 30.02 in 10.0 mi South 10.4 mph - N/A   Partly Cloudy
7:54 PM 84.0 °F 86.5 °F 66.9 °F 56% 30.02 in 10.0 mi South 8.1 mph - N/A   Clear
8:54 PM 81.0 °F 83.3 °F 66.9 °F 62% 30.03 in 10.0 mi SSE 6.9 mph - N/A   Clear
9:54 PM 79.0 °F - 68.0 °F 69% 30.05 in 10.0 mi SE 5.8 mph - N/A   Clear
10:54 PM 75.9 °F - 69.1 °F 79% 30.06 in 10.0 mi Calm Calm - N/A   Clear
11:54 PM 75.9 °F - 68.0 °F 76% 30.06 in 10.0 mi SSE 6.9 mph - N/A   Clear